Retour au catalogue

CZ-4 DEB

ActifSSO
NORAD 26159·DEBRIS·🇨🇳 China

Lancé Oct 14, 1999 depuis Taiyuan Satellite Launch Center

Loading…

Prochains Passages (prochaines 24 heures)

TLE

FraisSource: Space-Track

Époque: Sep 14, 2026, 09:47 UTC

1 26159U 99057AV  26257.40790602  .00000526  00000-0  25155-3 0  9997
2 26159  99.3762 230.8214 0294007 113.7196  36.2513 14.03136155340535

Suivez CZ-4 DEB en temps réel avec AllMySat

Download on the App Store